| time (UTC) | temp F | wind direction | speed MPH | gust MPH | rain 1hr in | rain 24hr in | rain mn in | humidity % | barometer mb |
| 20260906193330 | 78 | 25 | 7.0 | 4.0 | 0.00 | 0.00 | 0.00 | 54 | 1019.4 |
| 20260906192831 | 79 | 18 | 3.0 | 4.0 | 0.00 | 0.00 | 0.00 | 53 | 1019.4 |
| 20260906192330 | 79 | 25 | 2.0 | 5.0 | 0.00 | 0.00 | 0.00 | 54 | 1019.4 |
| 20260906191831 | 79 | 52 | 3.0 | 5.0 | 0.00 | 0.00 | 0.00 | 54 | 1019.5 |
| 20260906191331 | 79 | 90 | 4.0 | 5.0 | 0.00 | 0.00 | 0.00 | 53 | 1019.6 |
| 20260906190831 | 79 | 24 | 4.0 | 5.0 | 0.00 | 0.00 | 0.00 | 55 | 1019.6 |
| 20260906190330 | 79 | 114 | 4.0 | 4.0 | 0.00 | 0.00 | 0.00 | 57 | 1019.5 |
| 20260906185830 | 79 | 32 | 2.0 | 4.0 | 0.00 | 0.00 | 0.00 | 57 | 1019.5 |
| 20260906185330 | 78 | 69 | 3.0 | 5.0 | 0.00 | 0.00 | 0.00 | 56 | 1019.5 |
| 20260906184831 | 78 | 62 | 1.0 | 4.0 | 0.00 | 0.00 | 0.00 | 56 | 1019.6 |
| 20260906184330 | 78 | 47 | 6.0 | 5.0 | 0.00 | 0.00 | 0.00 | 58 | 1019.6 |
| 20260906183831 | 78 | 75 | 4.0 | 6.0 | 0.00 | 0.00 | 0.00 | 59 | 1019.7 |
| 20260906183330 | 77 | 91 | 5.0 | 6.0 | 0.00 | 0.00 | 0.00 | 60 | 1019.7 |
| 20260906182830 | 77 | 1 | 8.0 | 7.0 | 0.00 | 0.00 | 0.00 | 57 | 1019.7 |
| 20260906182330 | 78 | 53 | 5.0 | 6.0 | 0.00 | 0.00 | 0.00 | 58 | 1019.5 |
| 20260906181830 | 78 | 57 | 9.0 | 5.0 | 0.00 | 0.00 | 0.00 | 57 | 1019.6 |
| 20260906181330 | 79 | 1 | 3.0 | 5.0 | 0.00 | 0.00 | 0.00 | 57 | 1019.7 |
| 20260906180831 | 79 | 82 | 3.0 | 4.0 | 0.00 | 0.00 | 0.00 | 57 | 1019.8 |
| 20260906180330 | 79 | 60 | 8.0 | 4.0 | 0.00 | 0.00 | 0.00 | 59 | 1019.8 |
| 20260906175831 | 79 | 63 | 3.0 | 5.0 | 0.00 | 0.00 | 0.00 | 57 | 1019.8 |
| 20260906175330 | 79 | 86 | 3.0 | 5.0 | 0.00 | 0.00 | 0.00 | 57 | 1019.9 |
| 20260906174831 | 80 | 48 | 3.0 | 5.0 | 0.00 | 0.00 | 0.00 | 56 | 1019.9 |
| 20260906174330 | 80 | 48 | 4.0 | 4.0 | 0.00 | 0.00 | 0.00 | 56 | 1019.9 |
| 20260906173830 | 81 | 72 | 9.0 | 4.0 | 0.00 | 0.00 | 0.00 | 56 | 1019.9 |
| 20260906173330 | 80 | 338 | 4.0 | 4.0 | 0.00 | 0.00 | 0.00 | 57 | 1019.9 |
| 20260906172830 | 80 | 76 | 4.0 | 5.0 | 0.00 | 0.00 | 0.00 | 59 | 1019.9 |
| 20260906172331 | 80 | 56 | 3.0 | 4.0 | 0.00 | 0.00 | 0.00 | 58 | 1020.1 |
| 20260906171830 | 81 | 30 | 3.0 | 4.0 | 0.00 | 0.00 | 0.00 | 57 | 1020.1 |
| 20260906171330 | 81 | 76 | 2.0 | 5.0 | 0.00 | 0.00 | 0.00 | 58 | 1020.1 |
| 20260906170830 | 80 | 58 | 5.0 | 5.0 | 0.00 | 0.00 | 0.00 | 58 | 1020.1 |
| 20260906170330 | 80 | 77 | 3.0 | 5.0 | 0.00 | 0.00 | 0.00 | 57 | 1020.1 |
| 20260906165832 | 81 | 42 | 2.0 | 4.0 | 0.00 | 0.00 | 0.00 | 56 | 1020.1 |
| 20260906165330 | 82 | 59 | 4.0 | 4.0 | 0.00 | 0.00 | 0.00 | 55 | 1020.2 |
| 20260906164831 | 82 | 85 | 3.0 | 4.0 | 0.00 | 0.00 | 0.00 | 55 | 1020.1 |
| 20260906164330 | 81 | 186 | 3.0 | 4.0 | 0.00 | 0.00 | 0.00 | 57 | 1020.0 |
| 20260906163830 | 80 | 99 | 2.0 | 4.0 | 0.00 | 0.00 | 0.00 | 57 | 1020.2 |
| 20260906163330 | 80 | 75 | 3.0 | 5.0 | 0.00 | 0.00 | 0.00 | 57 | 1020.1 |
| 20260906162830 | 80 | 63 | 4.0 | 4.0 | 0.00 | 0.00 | 0.00 | 57 | 1020.1 |
| 20260906162330 | 81 | 54 | 11.0 | 3.0 | 0.00 | 0.00 | 0.00 | 58 | 1020.0 |
| 20260906161831 | 80 | 80 | 3.0 | 3.0 | 0.00 | 0.00 | 0.00 | 59 | 1020.1 |
| 20260906161331 | 80 | 350 | 4.0 | 4.0 | 0.00 | 0.00 | 0.00 | 59 | 1020.0 |
| 20260906160831 | 80 | 117 | 3.0 | 4.0 | 0.00 | 0.00 | 0.00 | 60 | 1019.9 |
| 20260906160331 | 80 | 61 | 5.0 | 4.0 | 0.00 | 0.00 | 0.00 | 60 | 1019.9 |
| 20260906155831 | 81 | 73 | 8.0 | 4.0 | 0.00 | 0.00 | 0.00 | 58 | 1020.0 |
| 20260906155331 | 80 | 62 | 6.0 | 3.0 | 0.00 | 0.00 | 0.00 | 60 | 1020.0 |
| 20260906154831 | 80 | 51 | 3.0 | 4.0 | 0.00 | 0.00 | 0.00 | 61 | 1019.9 |
| 20260906154331 | 80 | 104 | 2.0 | 4.0 | 0.00 | 0.00 | 0.00 | 61 | 1020.0 |
| 20260906153831 | 79 | 80 | 3.0 | 3.0 | 0.00 | 0.00 | 0.00 | 63 | 1020.0 |
| 20260906153331 | 79 | 57 | 2.0 | 3.0 | 0.00 | 0.00 | 0.00 | 64 | 1020.0 |
| 20260906152831 | 78 | 86 | 2.0 | 4.0 | 0.00 | 0.00 | 0.00 | 65 | 1020.0 |
| 20260906152332 | 78 | 83 | 4.0 | 5.0 | 0.00 | 0.00 | 0.00 | 66 | 1020.1 |
| 20260906151832 | 78 | 74 | 4.0 | 5.0 | 0.00 | 0.00 | 0.00 | 67 | 1020.1 |
| 20260906151331 | 78 | 63 | 6.0 | 4.0 | 0.00 | 0.00 | 0.00 | 67 | 1020.0 |
| 20260906150831 | 77 | 69 | 4.0 | 4.0 | 0.00 | 0.00 | 0.00 | 67 | 1020.0 |
| 20260906150332 | 77 | 61 | 7.0 | 4.0 | 0.00 | 0.00 | 0.00 | 68 | 1019.9 |
| 20260906145831 | 77 | 87 | 4.0 | 4.0 | 0.00 | 0.00 | 0.00 | 68 | 1020.0 |
| 20260906145332 | 77 | 55 | 5.0 | 5.0 | 0.00 | 0.00 | 0.00 | 68 | 1019.9 |
| 20260906144832 | 77 | 77 | 5.0 | 4.0 | 0.00 | 0.00 | 0.00 | 68 | 1019.9 |
| 20260906144331 | 77 | 75 | 5.0 | 3.0 | 0.00 | 0.00 | 0.00 | 69 | 1019.9 |
| 20260906143831 | 77 | 0 | 0.0 | 3.0 | 0.00 | 0.00 | 0.00 | 70 | 1019.9 |
| 20260906143331 | 77 | 64 | 6.0 | 3.0 | 0.00 | 0.00 | 0.00 | 72 | 1019.8 |
| 20260906142833 | 76 | 87 | 4.0 | 2.0 | 0.00 | 0.00 | 0.00 | 72 | 1019.8 |
| 20260906142331 | 76 | 179 | 1.0 | 2.0 | 0.00 | 0.00 | 0.00 | 73 | 1019.9 |
| 20260906141832 | 76 | 71 | 4.0 | 2.0 | 0.00 | 0.00 | 0.00 | 74 | 1019.9 |
| 20260906141331 | 75 | 59 | 2.0 | 3.0 | 0.00 | 0.00 | 0.00 | 75 | 1019.9 |
| 20260906140831 | 75 | 89 | 1.0 | 3.0 | 0.00 | 0.00 | 0.00 | 76 | 1019.7 |
| 20260906140331 | 75 | 55 | 4.0 | 3.0 | 0.00 | 0.00 | 0.00 | 77 | 1019.6 |
| 20260906135831 | 74 | 162 | 6.0 | 3.0 | 0.00 | 0.00 | 0.00 | 78 | 1019.6 |
| 20260906135331 | 74 | 181 | 2.0 | 3.0 | 0.00 | 0.00 | 0.00 | 79 | 1019.5 |
| 20260906134831 | 74 | 84 | 2.0 | 3.0 | 0.00 | 0.00 | 0.00 | 80 | 1019.5 |
| 20260906134331 | 73 | 37 | 1.0 | 3.0 | 0.00 | 0.00 | 0.00 | 81 | 1019.4 |
| 20260906133832 | 73 | 60 | 3.0 | 3.0 | 0.00 | 0.00 | 0.00 | 82 | 1019.4 |
| 20260906133331 | 73 | 13 | 1.0 | 3.0 | 0.00 | 0.00 | 0.00 | 82 | 1019.6 |
| 20260906132831 | 73 | 186 | 4.0 | 3.0 | 0.00 | 0.00 | 0.00 | 84 | 1019.5 |
| 20260906132331 | 72 | 160 | 2.0 | 3.0 | 0.00 | 0.00 | 0.00 | 84 | 1019.5 |
| 20260906131831 | 72 | 58 | 3.0 | 3.0 | 0.00 | 0.00 | 0.00 | 85 | 1019.5 |
| 20260906131331 | 72 | 356 | 1.0 | 3.0 | 0.00 | 0.00 | 0.00 | 85 | 1019.5 |
| 20260906130832 | 72 | 63 | 4.0 | 3.0 | 0.00 | 0.00 | 0.00 | 85 | 1019.5 |
| 20260906130331 | 72 | 86 | 2.0 | 3.0 | 0.00 | 0.00 | 0.00 | 86 | 1019.4 |
| 20260906125831 | 72 | 58 | 4.0 | 2.0 | 0.00 | 0.00 | 0.00 | 86 | 1019.3 |
| 20260906125331 | 72 | 64 | 1.0 | 2.0 | 0.00 | 0.00 | 0.00 | 86 | 1019.4 |
| 20260906124831 | 72 | 82 | 1.0 | 3.0 | 0.00 | 0.00 | 0.00 | 86 | 1019.3 |
| 20260906124331 | 72 | 75 | 3.0 | 3.0 | 0.00 | 0.00 | 0.00 | 86 | 1019.2 |
| 20260906123831 | 72 | 78 | 3.0 | 3.0 | 0.00 | 0.00 | 0.00 | 86 | 1019.2 |
| 20260906123331 | 72 | 63 | 3.0 | 4.0 | 0.00 | 0.00 | 0.00 | 86 | 1019.2 |
| 20260906122831 | 71 | 72 | 4.0 | 5.0 | 0.00 | 0.00 | 0.00 | 86 | 1019.1 |
| 20260906122331 | 71 | 66 | 6.0 | 4.0 | 0.00 | 0.00 | 0.00 | 86 | 1019.1 |
| 20260906121832 | 72 | 77 | 5.0 | 3.0 | 0.00 | 0.00 | 0.00 | 86 | 1019.1 |
| 20260906121331 | 71 | 47 | 1.0 | 4.0 | 0.00 | 0.00 | 0.00 | 86 | 1019.0 |
| 20260906120832 | 71 | 52 | 4.0 | 3.0 | 0.00 | 0.00 | 0.00 | 86 | 1018.9 |
| 20260906120331 | 71 | 64 | 4.0 | 3.0 | 0.00 | 0.00 | 0.00 | 86 | 1018.9 |
| 20260906115831 | 71 | 27 | 2.0 | 3.0 | 0.00 | 0.00 | 0.00 | 86 | 1018.8 |
| 20260906115331 | 71 | 65 | 7.0 | 3.0 | 0.00 | 0.00 | 0.00 | 86 | 1018.7 |
| 20260906114831 | 71 | 74 | 4.0 | 3.0 | 0.00 | 0.00 | 0.00 | 86 | 1018.7 |
| 20260906114331 | 71 | 75 | 3.0 | 2.0 | 0.00 | 0.00 | 0.00 | 86 | 1018.6 |
| 20260906113831 | 71 | 88 | 3.0 | 3.0 | 0.00 | 0.00 | 0.00 | 86 | 1018.5 |
| 20260906113330 | 71 | 52 | 1.0 | 3.0 | 0.00 | 0.00 | 0.00 | 86 | 1018.3 |
| 20260906112831 | 71 | 60 | 3.0 | 3.0 | 0.00 | 0.00 | 0.00 | 86 | 1018.2 |
| 20260906112331 | 71 | 34 | 5.0 | 3.0 | 0.00 | 0.00 | 0.00 | 86 | 1018.2 |
| 20260906111831 | 72 | 57 | 5.0 | 3.0 | 0.00 | 0.00 | 0.00 | 86 | 1018.1 |
| 20260906111331 | 72 | 65 | 1.0 | 3.0 | 0.00 | 0.00 | 0.00 | 86 | 1018.1 |
| 20260906110831 | 72 | 50 | 2.0 | 3.0 | 0.00 | 0.00 | 0.00 | 86 | 1018.0 |
| 20260906110330 | 72 | 38 | 2.0 | 3.0 | 0.00 | 0.00 | 0.00 | 86 | 1018.1 |
| 20260906105831 | 72 | 62 | 3.0 | 3.0 | 0.00 | 0.00 | 0.00 | 86 | 1018.1 |
| 20260906105331 | 72 | 77 | 3.0 | 2.0 | 0.00 | 0.00 | 0.00 | 85 | 1018.0 |
| 20260906104831 | 72 | 70 | 7.0 | 2.0 | 0.00 | 0.00 | 0.00 | 85 | 1017.9 |
| 20260906104332 | 72 | 58 | 3.0 | 2.0 | 0.00 | 0.00 | 0.00 | 85 | 1017.9 |
| 20260906103831 | 72 | 55 | 2.0 | 2.0 | 0.00 | 0.00 | 0.00 | 85 | 1017.6 |
| 20260906103331 | 73 | 75 | 2.0 | 2.0 | 0.00 | 0.00 | 0.00 | 85 | 1017.5 |
| 20260906102831 | 73 | 89 | 2.0 | 2.0 | 0.00 | 0.00 | 0.00 | 85 | 1017.5 |
| 20260906102331 | 73 | 49 | 2.0 | 2.0 | 0.00 | 0.00 | 0.00 | 84 | 1017.5 |
| 20260906101831 | 73 | 68 | 1.0 | 3.0 | 0.00 | 0.00 | 0.00 | 84 | 1017.4 |
| 20260906101331 | 73 | 56 | 3.0 | 2.0 | 0.00 | 0.00 | 0.00 | 84 | 1017.5 |
| 20260906100831 | 73 | 34 | 2.0 | 2.0 | 0.00 | 0.00 | 0.00 | 84 | 1017.5 |
| 20260906100331 | 73 | 63 | 3.0 | 3.0 | 0.00 | 0.00 | 0.00 | 84 | 1017.5 |
| 20260906095831 | 73 | 72 | 2.0 | 2.0 | 0.00 | 0.00 | 0.00 | 84 | 1017.4 |
| 20260906095331 | 73 | 72 | 3.0 | 2.0 | 0.00 | 0.00 | 0.00 | 83 | 1017.4 |
| 20260906094831 | 73 | 68 | 2.0 | 2.0 | 0.00 | 0.00 | 0.00 | 83 | 1017.4 |
| 20260906094331 | 73 | 50 | 1.0 | 3.0 | 0.00 | 0.00 | 0.00 | 83 | 1017.4 |
| 20260906093832 | 73 | 24 | 2.0 | 3.0 | 0.00 | 0.00 | 0.00 | 83 | 1017.3 |
| 20260906093331 | 73 | 60 | 4.0 | 2.0 | 0.00 | 0.00 | 0.00 | 83 | 1017.3 |
| 20260906092832 | 73 | 41 | 1.0 | 2.0 | 0.00 | 0.00 | 0.00 | 83 | 1017.2 |
| 20260906092330 | 73 | 64 | 1.0 | 2.0 | 0.00 | 0.00 | 0.00 | 83 | 1017.4 |
| 20260906091831 | 74 | 49 | 1.0 | 2.0 | 0.00 | 0.00 | 0.00 | 83 | 1017.4 |
| 20260906091331 | 74 | 19 | 2.0 | 3.0 | 0.00 | 0.00 | 0.00 | 83 | 1017.3 |
| 20260906090831 | 74 | 74 | 4.0 | 2.0 | 0.00 | 0.00 | 0.00 | 83 | 1017.3 |
| 20260906090330 | 74 | 58 | 4.0 | 2.0 | 0.00 | 0.00 | 0.00 | 83 | 1017.2 |
| 20260906085831 | 74 | 48 | 2.0 | 3.0 | 0.00 | 0.00 | 0.00 | 83 | 1017.2 |
| 20260906085330 | 74 | 68 | 4.0 | 3.0 | 0.00 | 0.00 | 0.00 | 82 | 1017.2 |
| 20260906084831 | 74 | 60 | 2.0 | 2.0 | 0.00 | 0.00 | 0.00 | 83 | 1017.3 |
| 20260906084330 | 74 | 70 | 5.0 | 2.0 | 0.00 | 0.00 | 0.00 | 83 | 1017.3 |
| 20260906083831 | 73 | 70 | 1.0 | 3.0 | 0.00 | 0.00 | 0.00 | 83 | 1017.3 |
| 20260906083331 | 74 | 64 | 3.0 | 3.0 | 0.00 | 0.00 | 0.00 | 83 | 1017.3 |
| 20260906082831 | 74 | 68 | 3.0 | 3.0 | 0.00 | 0.00 | 0.00 | 83 | 1017.2 |
| 20260906082331 | 74 | 81 | 4.0 | 2.0 | 0.00 | 0.00 | 0.00 | 83 | 1017.2 |
| 20260906081831 | 74 | 47 | 1.0 | 2.0 | 0.00 | 0.00 | 0.00 | 83 | 1017.2 |
| 20260906081330 | 74 | 77 | 1.0 | 3.0 | 0.00 | 0.00 | 0.00 | 84 | 1017.2 |
| 20260906080833 | 74 | 73 | 3.0 | 3.0 | 0.00 | 0.00 | 0.00 | 84 | 1017.2 |
| 20260906080330 | 74 | 77 | 4.0 | 2.0 | 0.00 | 0.00 | 0.00 | 84 | 1017.2 |
| 20260906075831 | 74 | 0 | 0.0 | 2.0 | 0.00 | 0.00 | 0.00 | 84 | 1017.3 |
| 20260906075332 | 74 | 69 | 1.0 | 2.0 | 0.00 | 0.00 | 0.00 | 84 | 1017.2 |
| 20260906074831 | 74 | 44 | 4.0 | 2.0 | 0.00 | 0.00 | 0.00 | 84 | 1017.2 |
| 20260906074330 | 74 | 55 | 3.0 | 2.0 | 0.00 | 0.00 | 0.00 | 84 | 1017.2 |
| 20260906073831 | 74 | 0 | 0.0 | 3.0 | 0.00 | 0.00 | 0.00 | 84 | 1017.2 |
| 20260906073330 | 74 | 51 | 2.0 | 3.0 | 0.00 | 0.00 | 0.00 | 84 | 1017.2 |
| 20260906072831 | 74 | 1 | 2.0 | 3.0 | 0.00 | 0.00 | 0.00 | 84 | 1017.3 |
| 20260906072330 | 74 | 40 | 2.0 | 3.0 | 0.00 | 0.00 | 0.00 | 85 | 1017.3 |
| 20260906071832 | 74 | 50 | 4.0 | 4.0 | 0.00 | 0.00 | 0.00 | 85 | 1017.5 |
| 20260906071330 | 74 | 68 | 1.0 | 3.0 | 0.00 | 0.00 | 0.00 | 85 | 1017.5 |
| 20260906070831 | 74 | 49 | 1.0 | 2.0 | 0.00 | 0.00 | 0.00 | 85 | 1017.4 |
| 20260906070330 | 74 | 68 | 2.0 | 2.0 | 0.00 | 0.00 | 0.00 | 85 | 1017.4 |
| 20260906065831 | 74 | 76 | 2.0 | 1.0 | 0.00 | 0.00 | 0.00 | 85 | 1017.3 |
| 20260906065330 | 74 | 0 | 0.0 | 1.0 | 0.00 | 0.00 | 0.00 | 85 | 1017.4 |
| 20260906064831 | 74 | 67 | 2.0 | 2.0 | 0.00 | 0.00 | 0.00 | 85 | 1017.4 |
| 20260906064330 | 74 | 73 | 1.0 | 2.0 | 0.00 | 0.00 | 0.00 | 85 | 1017.4 |
| 20260906063831 | 74 | 4 | 3.0 | 2.0 | 0.00 | 0.00 | 0.00 | 85 | 1017.4 |
| 20260906063331 | 73 | 53 | 2.0 | 2.0 | 0.00 | 0.00 | 0.00 | 86 | 1017.4 |
| 20260906062831 | 73 | 64 | 2.0 | 2.0 | 0.00 | 0.00 | 0.00 | 86 | 1017.4 |
| 20260906062331 | 73 | 47 | 1.0 | 2.0 | 0.00 | 0.00 | 0.00 | 86 | 1017.3 |
| 20260906061831 | 73 | 72 | 2.0 | 2.0 | 0.00 | 0.00 | 0.00 | 87 | 1017.3 |
| 20260906061331 | 73 | 35 | 2.0 | 1.0 | 0.00 | 0.00 | 0.00 | 87 | 1017.4 |
| 20260906060831 | 73 | 337 | 2.0 | 1.0 | 0.00 | 0.00 | 0.00 | 87 | 1017.4 |
| 20260906060330 | 73 | 1 | 2.0 | 1.0 | 0.00 | 0.00 | 0.00 | 87 | 1017.4 |
| 20260906055831 | 73 | 61 | 1.0 | 1.0 | 0.00 | 0.00 | 0.00 | 87 | 1017.4 |
| 20260906055331 | 73 | 18 | 1.0 | 2.0 | 0.00 | 0.00 | 0.00 | 88 | 1017.4 |
| 20260906054831 | 73 | 56 | 2.0 | 2.0 | 0.00 | 0.00 | 0.00 | 88 | 1017.3 |
| 20260906054330 | 73 | 32 | 1.0 | 2.0 | 0.00 | 0.00 | 0.00 | 88 | 1017.3 |
| 20260906053831 | 73 | 354 | 5.0 | 2.0 | 0.00 | 0.00 | 0.00 | 88 | 1017.4 |
| 20260906053331 | 73 | 20 | 2.0 | 2.0 | 0.00 | 0.00 | 0.00 | 88 | 1017.4 |
| 20260906052831 | 73 | 65 | 2.0 | 3.0 | 0.00 | 0.00 | 0.00 | 88 | 1017.3 |
| 20260906052330 | 73 | 41 | 4.0 | 3.0 | 0.00 | 0.00 | 0.00 | 88 | 1017.1 |
| 20260906051831 | 73 | 28 | 3.0 | 2.0 | 0.00 | 0.00 | 0.00 | 88 | 1017.0 |
| 20260906051330 | 73 | 12 | 5.0 | 2.0 | 0.00 | 0.00 | 0.00 | 88 | 1016.9 |
| 20260906050831 | 73 | 0 | 0.0 | 2.0 | 0.00 | 0.00 | 0.00 | 88 | 1017.0 |
| 20260906050330 | 73 | 348 | 1.0 | 3.0 | 0.00 | 0.00 | 0.00 | 88 | 1017.0 |
| 20260906045830 | 73 | 38 | 1.0 | 3.0 | 0.00 | 0.00 | 0.00 | 88 | 1017.0 |
| 20260906045330 | 73 | 65 | 1.0 | 3.0 | 0.00 | 0.00 | 0.00 | 88 | 1017.0 |
| 20260906044831 | 73 | 57 | 3.0 | 3.0 | 0.00 | 0.00 | 0.00 | 88 | 1016.9 |
| 20260906044330 | 73 | 50 | 1.0 | 4.0 | 0.00 | 0.00 | 0.00 | 88 | 1016.8 |
| 20260906043832 | 73 | 41 | 9.0 | 4.0 | 0.00 | 0.00 | 0.00 | 88 | 1016.8 |
| 20260906043330 | 73 | 57 | 5.0 | 4.0 | 0.00 | 0.00 | 0.00 | 87 | 1016.7 |
| 20260906042831 | 73 | 39 | 2.0 | 4.0 | 0.00 | 0.00 | 0.00 | 88 | 1016.6 |
| 20260906042330 | 73 | 79 | 4.0 | 4.0 | 0.00 | 0.00 | 0.00 | 87 | 1016.5 |
| 20260906041830 | 73 | 52 | 4.0 | 3.0 | 0.00 | 0.00 | 0.00 | 87 | 1016.6 |
| 20260906041330 | 73 | 86 | 4.0 | 4.0 | 0.00 | 0.00 | 0.00 | 87 | 1016.6 |
| 20260906040831 | 73 | 341 | 3.0 | 4.0 | 0.00 | 0.00 | 0.00 | 87 | 1016.5 |
| 20260906040330 | 73 | 47 | 4.0 | 3.0 | 0.00 | 0.00 | 0.00 | 87 | 1016.5 |
| 20260906035831 | 73 | 360 | 5.0 | 3.0 | 0.00 | 0.00 | 0.00 | 87 | 1016.5 |
| 20260906035330 | 73 | 22 | 3.0 | 4.0 | 0.00 | 0.00 | 0.00 | 87 | 1016.5 |
| 20260906034831 | 73 | 11 | 4.0 | 4.0 | 0.00 | 0.00 | 0.00 | 87 | 1016.4 |
| 20260906034331 | 73 | 60 | 5.0 | 4.0 | 0.00 | 0.00 | 0.00 | 87 | 1016.4 |
| 20260906033830 | 74 | 56 | 3.0 | 4.0 | 0.00 | 0.00 | 0.00 | 87 | 1016.4 |
| 20260906033330 | 74 | 59 | 4.0 | 3.0 | 0.00 | 0.00 | 0.00 | 87 | 1016.4 |
| 20260906032830 | 74 | 56 | 2.0 | 3.0 | 0.00 | 0.00 | 0.00 | 86 | 1016.4 |
| 20260906032330 | 74 | 359 | 2.0 | 4.0 | 0.00 | 0.00 | 0.00 | 86 | 1016.4 |
| 20260906031830 | 74 | 70 | 3.0 | 4.0 | 0.00 | 0.00 | 0.00 | 86 | 1016.5 |
| 20260906031330 | 74 | 49 | 10.0 | 3.0 | 0.00 | 0.00 | 0.00 | 86 | 1016.4 |
| 20260906030831 | 74 | 18 | 3.0 | 3.0 | 0.00 | 0.00 | 0.00 | 86 | 1016.5 |
| 20260906030330 | 74 | 26 | 2.0 | 4.0 | 0.00 | 0.00 | 0.00 | 86 | 1016.4 |
| 20260906025831 | 74 | 359 | 3.0 | 4.0 | 0.00 | 0.00 | 0.00 | 86 | 1016.4 |
| 20260906025330 | 74 | 58 | 3.0 | 4.0 | 0.00 | 0.00 | 0.00 | 86 | 1016.3 |
| 20260906024830 | 74 | 350 | 6.0 | 4.0 | 0.00 | 0.00 | 0.00 | 85 | 1016.2 |
| 20260906024330 | 74 | 61 | 2.0 | 4.0 | 0.00 | 0.00 | 0.00 | 85 | 1016.2 |
| 20260906023830 | 74 | 359 | 4.0 | 4.0 | 0.00 | 0.00 | 0.00 | 85 | 1016.2 |
| 20260906023330 | 74 | 33 | 4.0 | 4.0 | 0.00 | 0.00 | 0.00 | 85 | 1016.2 |
| 20260906022831 | 74 | 359 | 4.0 | 4.0 | 0.00 | 0.00 | 0.00 | 85 | 1016.3 |
| 20260906022330 | 74 | 359 | 5.0 | 4.0 | 0.00 | 0.00 | 0.00 | 85 | 1016.3 |
| 20260906021831 | 74 | 51 | 5.0 | 4.0 | 0.00 | 0.00 | 0.00 | 85 | 1016.4 |
| 20260906021330 | 74 | 79 | 6.0 | 4.0 | 0.00 | 0.00 | 0.00 | 85 | 1016.5 |
| 20260906020831 | 74 | 64 | 6.0 | 3.0 | 0.00 | 0.00 | 0.00 | 84 | 1016.4 |
| 20260906020330 | 74 | 65 | 1.0 | 4.0 | 0.00 | 0.00 | 0.00 | 85 | 1016.5 |
| 20260906015831 | 74 | 56 | 2.0 | 4.0 | 0.00 | 0.00 | 0.00 | 84 | 1016.5 |
| 20260906015330 | 74 | 56 | 7.0 | 4.0 | 0.00 | 0.00 | 0.00 | 84 | 1016.4 |
| 20260906014830 | 74 | 27 | 1.0 | 4.0 | 0.00 | 0.00 | 0.00 | 84 | 1016.5 |
| 20260906014330 | 74 | 77 | 3.0 | 4.0 | 0.00 | 0.00 | 0.00 | 84 | 1016.5 |
| 20260906013831 | 74 | 7 | 5.0 | 4.0 | 0.00 | 0.00 | 0.00 | 84 | 1016.5 |
| 20260906013331 | 74 | 60 | 2.0 | 4.0 | 0.00 | 0.00 | 0.00 | 84 | 1016.5 |
| 20260906012831 | 74 | 66 | 2.0 | 3.0 | 0.00 | 0.00 | 0.00 | 85 | 1016.4 |
| 20260906012330 | 74 | 11 | 5.0 | 4.0 | 0.00 | 0.00 | 0.00 | 85 | 1016.4 |
| 20260906011830 | 74 | 31 | 2.0 | 4.0 | 0.00 | 0.00 | 0.00 | 85 | 1016.4 |
| 20260906011330 | 74 | 1 | 6.0 | 4.0 | 0.00 | 0.00 | 0.00 | 85 | 1016.3 |
| 20260906010831 | 74 | 4 | 3.0 | 4.0 | 0.00 | 0.00 | 0.00 | 85 | 1016.1 |
| 20260906010331 | 74 | 30 | 4.0 | 4.0 | 0.00 | 0.00 | 0.00 | 85 | 1016.1 |
| 20260906005832 | 74 | 19 | 5.0 | 4.0 | 0.00 | 0.00 | 0.00 | 85 | 1016.0 |
| 20260906005331 | 74 | 28 | 3.0 | 5.0 | 0.00 | 0.00 | 0.00 | 85 | 1015.8 |
| 20260906004831 | 74 | 20 | 3.0 | 4.0 | 0.00 | 0.00 | 0.00 | 85 | 1015.7 |
| 20260906004331 | 74 | 63 | 4.0 | 4.0 | 0.00 | 0.00 | 0.00 | 85 | 1015.7 |
| 20260906003831 | 74 | 48 | 4.0 | 4.0 | 0.00 | 0.00 | 0.00 | 85 | 1015.7 |
| 20260906003331 | 74 | 359 | 6.0 | 4.0 | 0.00 | 0.00 | 0.00 | 85 | 1015.7 |
| 20260906002831 | 74 | 35 | 2.0 | 4.0 | 0.00 | 0.00 | 0.00 | 85 | 1015.5 |
| 20260906002331 | 74 | 85 | 5.0 | 4.0 | 0.00 | 0.00 | 0.00 | 85 | 1015.7 |
| 20260906001831 | 74 | 356 | 7.0 | 4.0 | 0.00 | 0.00 | 0.00 | 85 | 1015.6 |
| 20260906001331 | 74 | 5 | 2.0 | 4.0 | 0.00 | 0.00 | 0.00 | 85 | 1015.6 |
| 20260906000831 | 74 | 23 | 4.0 | 4.0 | 0.00 | 0.00 | 0.00 | 85 | 1015.6 |
| 20260906000333 | 74 | 46 | 6.0 | 4.0 | 0.00 | 0.00 | 0.00 | 85 | 1015.6 |
| 20260905235831 | 74 | 44 | 4.0 | 4.0 | 0.00 | 0.00 | 0.00 | 85 | 1015.7 |
| 20260905235331 | 74 | 6 | 3.0 | 4.0 | 0.00 | 0.00 | 0.00 | 85 | 1015.6 |
| 20260905234831 | 74 | 67 | 3.0 | 5.0 | 0.00 | 0.00 | 0.00 | 85 | 1015.6 |
| 20260905234331 | 73 | 295 | 2.0 | 5.0 | 0.00 | 0.00 | 0.00 | 84 | 1015.7 |
| 20260905233831 | 73 | 13 | 4.0 | 5.0 | 0.00 | 0.00 | 0.00 | 84 | 1015.7 |
| 20260905233331 | 74 | 89 | 4.0 | 5.0 | 0.00 | 0.00 | 0.00 | 84 | 1015.7 |
| 20260905232831 | 74 | 55 | 6.0 | 4.0 | 0.00 | 0.00 | 0.00 | 84 | 1015.7 |
| 20260905232331 | 74 | 39 | 6.0 | 4.0 | 0.00 | 0.00 | 0.00 | 84 | 1015.7 |
| 20260905231831 | 74 | 350 | 3.0 | 4.0 | 0.00 | 0.00 | 0.00 | 84 | 1015.7 |
| 20260905231331 | 74 | 34 | 5.0 | 5.0 | 0.00 | 0.00 | 0.00 | 84 | 1015.5 |
| 20260905230831 | 74 | 83 | 4.0 | 5.0 | 0.00 | 0.00 | 0.00 | 84 | 1015.5 |
| 20260905230331 | 74 | 79 | 5.0 | 5.0 | 0.00 | 0.00 | 0.00 | 84 | 1015.5 |
| 20260905225831 | 75 | 17 | 8.0 | 4.0 | 0.00 | 0.00 | 0.00 | 84 | 1015.3 |
| 20260905225331 | 75 | 11 | 11.0 | 5.0 | 0.00 | 0.00 | 0.00 | 83 | 1015.4 |
| 20260905224831 | 75 | 29 | 6.0 | 6.0 | 0.00 | 0.00 | 0.00 | 82 | 1015.5 |
| 20260905224331 | 76 | 39 | 5.0 | 5.0 | 0.00 | 0.00 | 0.00 | 82 | 1015.6 |
| 20260905223831 | 76 | 30 | 14.0 | 4.0 | 0.00 | 0.00 | 0.00 | 82 | 1015.6 |
| 20260905223331 | 77 | 1 | 3.0 | 5.0 | 0.00 | 0.00 | 0.00 | 81 | 1015.5 |
| 20260905222831 | 77 | 30 | 4.0 | 5.0 | 0.00 | 0.00 | 0.00 | 81 | 1015.6 |
| 20260905222332 | 77 | 45 | 3.0 | 4.0 | 0.00 | 0.00 | 0.00 | 80 | 1015.4 |
| 20260905221831 | 77 | 360 | 2.0 | 4.0 | 0.00 | 0.00 | 0.00 | 80 | 1015.3 |
| 20260905221331 | 77 | 354 | 3.0 | 4.0 | 0.00 | 0.00 | 0.00 | 80 | 1015.2 |
| 20260905220831 | 77 | 360 | 1.0 | 5.0 | 0.00 | 0.00 | 0.00 | 80 | 1015.2 |
| 20260905220331 | 78 | 1 | 8.0 | 5.0 | 0.00 | 0.00 | 0.00 | 80 | 1015.2 |
| 20260905215831 | 78 | 8 | 5.0 | 5.0 | 0.00 | 0.00 | 0.00 | 79 | 1015.2 |
| 20260905215331 | 78 | 316 | 4.0 | 5.0 | 0.00 | 0.00 | 0.00 | 79 | 1015.1 |
| 20260905214832 | 78 | 351 | 5.0 | 5.0 | 0.00 | 0.00 | 0.00 | 79 | 1015.1 |
| 20260905214331 | 78 | 65 | 9.0 | 5.0 | 0.00 | 0.00 | 0.00 | 79 | 1015.0 |
| 20260905213832 | 79 | 9 | 8.0 | 5.0 | 0.00 | 0.00 | 0.00 | 79 | 1015.0 |
| 20260905213331 | 79 | 56 | 3.0 | 5.0 | 0.00 | 0.00 | 0.00 | 78 | 1014.9 |
| 20260905212831 | 79 | 352 | 5.0 | 5.0 | 0.00 | 0.00 | 0.00 | 78 | 1014.9 |
| 20260905212331 | 79 | 359 | 4.0 | 4.0 | 0.00 | 0.00 | 0.00 | 78 | 1014.9 |
| 20260905211831 | 79 | 31 | 2.0 | 4.0 | 0.00 | 0.00 | 0.00 | 78 | 1014.9 |
| 20260905211331 | 79 | 75 | 6.0 | 5.0 | 0.00 | 0.00 | 0.00 | 78 | 1014.9 |
| 20260905210831 | 79 | 39 | 4.0 | 5.0 | 0.00 | 0.00 | 0.00 | 78 | 1014.9 |
| 20260905210330 | 79 | 74 | 4.0 | 4.0 | 0.00 | 0.00 | 0.00 | 77 | 1015.0 |
| 20260905205831 | 79 | 326 | 5.0 | 5.0 | 0.00 | 0.00 | 0.00 | 78 | 1014.9 |
| 20260905205331 | 79 | 331 | 8.0 | 4.0 | 0.00 | 0.00 | 0.00 | 78 | 1015.0 |
| 20260905204832 | 79 | 360 | 4.0 | 5.0 | 0.00 | 0.00 | 0.00 | 78 | 1015.0 |
| 20260905204330 | 79 | 12 | 3.0 | 5.0 | 0.00 | 0.00 | 0.00 | 78 | 1015.0 |
| 20260905203832 | 79 | 35 | 5.0 | 6.0 | 0.00 | 0.00 | 0.00 | 77 | 1014.9 |
| 20260905203330 | 80 | 67 | 5.0 | 6.0 | 0.00 | 0.00 | 0.00 | 77 | 1015.0 |
| 20260905202831 | 80 | 58 | 6.0 | 6.0 | 0.00 | 0.00 | 0.00 | 77 | 1014.9 |
| 20260905202331 | 79 | 360 | 6.0 | 6.0 | 0.00 | 0.00 | 0.00 | 77 | 1014.9 |
| 20260905201831 | 80 | 3 | 7.0 | 5.0 | 0.00 | 0.00 | 0.00 | 76 | 1015.0 |
| 20260905201332 | 80 | 20 | 4.0 | 5.0 | 0.00 | 0.00 | 0.00 | 76 | 1015.0 |
| 20260905200831 | 80 | 67 | 3.0 | 5.0 | 0.00 | 0.00 | 0.00 | 76 | 1015.0 |
| 20260905200331 | 80 | 2 | 5.0 | 4.0 | 0.00 | 0.00 | 0.00 | 76 | 1015.0 |
| 20260905195831 | 80 | 345 | 5.0 | 5.0 | 0.00 | 0.00 | 0.00 | 76 | 1015.0 |
| 20260905195330 | 80 | 356 | 7.0 | 6.0 | 0.00 | 0.00 | 0.00 | 76 | 1015.1 |
| 20260905194831 | 80 | 96 | 6.0 | 6.0 | 0.00 | 0.00 | 0.00 | 75 | 1015.1 |
| 20260905194330 | 80 | 351 | 6.0 | 5.0 | 0.00 | 0.00 | 0.00 | 75 | 1015.1 |
| 20260905193831 | 80 | 29 | 3.0 | 5.0 | 0.00 | 0.00 | 0.00 | 75 | 1015.1 |